Weather History for KHYR - January, 2014

Change the Weather History Date:

Thursday, January 16, 2014

  Actual Average Record
Temperature  
Mean Temperature 18 °F -  
Max Temperature 28 °F 29 °F 42 °F (1999)
Min Temperature 7 °F 2 °F -32 °F (2009)
Degree Days  
Heating Degree Days 48    
Moisture  
Dew Point 11 °F    
Average Humidity 79    
Maximum Humidity 92    
Minimum Humidity 62    
Precipitation  
Precipitation 0.04 in - - ()
Sea Level Pressure  
Sea Level Pressure 29.49 in    
Wind  
Wind Speed 6 mph (WSW)    
Max Wind Speed 12 mph    
Max Gust Speed 22 mph    
Visibility 5 miles    
Events Fog , Snow    
Averages and records for this station are not official NWS values.
T = Trace of Precipitation, MM = Missing Value Source: NWS Daily Summary

Daily Weather History Graph

Daily Weather History Graph

Search for Another Location

Airport or City:

Trip Planner

Search our weather history database for the weather conditions in past years. The results will help you decide how hot, cold, wet, or windy it might be!

Date:

Astronomy

Jan. 16, 2014 Rise Set
Actual Time 7:43 AM CST 4:48 PM CST
Civil Twilight 7:09 AM CST 5:21 PM CST
Nautical Twilight 6:32 AM CST 5:58 PM CST
Astronomical Twilight 5:57 AM CST 6:34 PM CST
Moon 5:46 PM CST (1/16) 7:32 AM CST (1/16)
Length of Visible Light 10h 12m
Length of Day
9h 05m
Full, 100% of the Moon is Illuminated
Jan 16
Full
Jan 23
Last Quarter
Jan 30
New
Feb 6
First Quarter
Feb 14
Full

Hourly Weather History & Observations

Time (CST) Temp. Windchill Dew Point Humidity Pressure Visibility Wind Dir Wind Speed Gust Speed Precip Events Conditions
12:00 AM 17.1 °F 5.0 °F 10.0 °F 74% 29.35 in 10.0 mi South 10.4 mph 18.4 mph N/A   Overcast
12:53 AM 17.1 °F 5.0 °F 12.0 °F 81% 29.39 in 10.0 mi South 10.4 mph - N/A   Overcast
1:53 AM 19.0 °F 9.0 °F 14.0 °F 81% 29.37 in 10.0 mi South 8.1 mph - N/A   Overcast
2:53 AM 19.9 °F 9.3 °F 15.1 °F 81% 29.36 in 10.0 mi South 9.2 mph - N/A   Overcast
3:18 AM 19.9 °F 11.1 °F 16.0 °F 85% 29.29 in 1.8 mi South 6.9 mph - 0.00 in Snow Light Snow
3:46 AM 19.9 °F 14.9 °F 17.1 °F 89% 29.28 in 3.0 mi SSW 3.5 mph - 0.00 in Snow Light Snow
3:53 AM 21.0 °F 16.2 °F 17.1 °F 85% 29.35 in 4.0 mi SSW 3.5 mph - 0.00 in Snow Light Snow
4:28 AM 21.9 °F 15.7 °F 18.0 °F 85% 29.27 in 10.0 mi SSW 4.6 mph - 0.00 in   Overcast
4:53 AM 21.9 °F 17.2 °F 18.0 °F 85% 29.34 in 10.0 mi SSW 3.5 mph - 0.00 in   Overcast
5:53 AM 23.0 °F 18.4 °F 19.0 °F 85% 29.34 in 10.0 mi South 3.5 mph - 0.00 in   Overcast
6:24 AM 24.1 °F 19.7 °F 19.9 °F 84% 29.27 in 10.0 mi SSW 3.5 mph - 0.00 in   Overcast
6:53 AM 24.1 °F 19.7 °F 21.0 °F 88% 29.34 in 10.0 mi SSW 3.5 mph - 0.00 in   Overcast
7:06 AM 24.1 °F - 21.0 °F 88% 29.27 in 10.0 mi Calm Calm - N/A   Overcast
7:53 AM 25.0 °F 20.7 °F 21.9 °F 88% 29.35 in 6.0 mi South 3.5 mph - 0.00 in Snow Light Snow
8:02 AM 25.0 °F 20.7 °F 21.9 °F 88% 29.28 in 1.8 mi SSW 3.5 mph - 0.00 in Snow Light Snow
8:11 AM 25.0 °F 20.7 °F 23.0 °F 92% 29.29 in 0.2 mi SSW 3.5 mph - 0.01 in Fog , Snow Snow
8:34 AM 26.1 °F 21.9 °F 23.0 °F 88% 29.29 in 1.2 mi SSW 3.5 mph - 0.02 in Snow Light Snow
8:53 AM 26.1 °F 21.9 °F 24.1 °F 92% 29.36 in 1.5 mi SW 3.5 mph - 0.02 in Snow Light Snow
8:59 AM 27.0 °F 23.0 °F 24.1 °F 89% 29.30 in 3.0 mi Variable 3.5 mph - 0.00 in Snow Light Snow
9:11 AM 28.0 °F - 24.1 °F 85% 29.31 in 2.5 mi North - - 0.00 in Snow Light Snow
9:17 AM 28.0 °F 21.7 °F 24.1 °F 85% 29.31 in 4.0 mi Variable 5.8 mph - 0.00 in Snow Light Snow
9:27 AM 28.0 °F 18.6 °F 24.1 °F 85% 29.32 in 6.0 mi West 10.4 mph - 0.00 in Snow Light Snow
9:53 AM 25.0 °F 16.3 °F 19.9 °F 81% 29.41 in 3.0 mi West 8.1 mph 18.4 mph 0.01 in Snow Light Snow
10:53 AM 23.0 °F 13.1 °F 15.1 °F 72% 29.43 in 10.0 mi WNW 9.2 mph 17.3 mph 0.00 in   Overcast
11:26 AM 19.9 °F 9.3 °F 12.9 °F 74% 29.39 in 1.8 mi NW 9.2 mph 18.4 mph 0.00 in Snow Light Snow
11:39 AM 18.0 °F 5.4 °F 12.0 °F 78% 29.41 in 1.0 mi WNW 11.5 mph 21.9 mph 0.00 in Snow Light Snow
11:45 AM 17.1 °F 7.6 °F 9.0 °F 71% 29.41 in 2.5 mi Variable 6.9 mph 19.6 mph 0.00 in Snow Light Snow
11:53 AM 17.1 °F 5.8 °F 8.1 °F 68% 29.49 in 9.0 mi West 9.2 mph - 0.00 in   Overcast
12:53 PM 14.0 °F 2.0 °F 3.0 °F 62% 29.52 in 9.0 mi NNW 9.2 mph 20.7 mph 0.00 in Snow Light Snow
1:53 PM 10.9 °F -2.6 °F 1.0 °F 64% 29.56 in 4.0 mi WNW 10.4 mph 19.6 mph 0.00 in Snow Light Snow
2:50 PM 10.4 °F -2.4 °F -0.4 °F 62% 29.53 in 10.0 mi NW 9.2 mph - 0.00 in   Overcast
2:53 PM 10.0 °F -3.7 °F -0.0 °F 64% 29.61 in 10.0 mi NW 10.4 mph - 0.00 in   Overcast
3:53 PM 9.0 °F -3.2 °F -0.9 °F 64% 29.65 in 9.0 mi NW 8.1 mph - N/A   Overcast
4:10 PM 9.0 °F -0.9 °F -0.9 °F 64% 29.59 in 10.0 mi Variable 5.8 mph 17.3 mph N/A   Overcast
4:53 PM 8.1 °F - -2.0 °F 64% 29.69 in 7.0 mi North - - 0.00 in Snow Light Snow
5:39 PM 8.1 °F -2.0 °F -0.0 °F 70% 29.64 in 2.5 mi Variable 5.8 mph - 0.00 in Snow Light Snow
5:53 PM 8.1 °F -0.5 °F 1.0 °F 73% 29.71 in 2.5 mi West 4.6 mph - 0.00 in Snow Light Snow
6:25 PM 8.1 °F -0.5 °F 1.0 °F 73% 29.65 in 1.8 mi Variable 4.6 mph - 0.00 in Snow Light Snow
6:53 PM 7.0 °F -3.3 °F 1.9 °F 80% 29.73 in 1.8 mi WNW 5.8 mph - 0.00 in Snow Light Snow
7:01 PM 7.0 °F 0.1 °F 1.9 °F 80% 29.66 in 2.5 mi Variable 3.5 mph - 0.00 in Snow Light Snow
7:15 PM 7.0 °F 0.1 °F 1.9 °F 80% 29.66 in 3.0 mi Variable 3.5 mph - 0.00 in Snow Light Snow
7:28 PM 7.0 °F -1.7 °F 1.9 °F 80% 29.66 in 4.0 mi Variable 4.6 mph - 0.00 in Snow Light Snow
7:53 PM 8.1 °F - 1.9 °F 76% 29.74 in 2.5 mi Calm Calm - 0.00 in Snow Light Snow
8:18 PM 8.1 °F - 3.0 °F 80% 29.67 in 1.8 mi Calm Calm - 0.00 in Snow Light Snow
8:28 PM 8.1 °F 1.4 °F 3.0 °F 80% 29.67 in 1.5 mi Variable 3.5 mph - 0.00 in Snow Light Snow
8:53 PM 8.1 °F -0.5 °F 3.9 °F 83% 29.75 in 1.8 mi Variable 4.6 mph - 0.01 in Snow Light Snow
9:53 PM 10.0 °F - 5.0 °F 80% 29.77 in 1.5 mi Calm Calm - 0.00 in Snow Light Snow
10:53 PM 10.0 °F - 5.0 °F 80% 29.78 in 1.8 mi Calm Calm - 0.00 in Snow Light Snow
11:33 PM 10.0 °F - 5.0 °F 80% 29.73 in 2.0 mi North - - 0.00 in Snow Light Snow
11:53 PM 10.0 °F 1.8 °F 5.0 °F 80% 29.81 in 3.0 mi Variable 4.6 mph - 0.00 in Snow Light Snow